Wind_Speed
19 18 17 17 17 17 17 17 17 17 17 18 18 18 19 19 19 19 19 19 19 19 19 20 19 19 20 20 21 22 22 23 23 24 24 25 25 25 26 26 26 26 25 25 26 26 27 27 26 25 24 24 23 24 24 23 23 22 23 24 26 28 30 30 30 29 30 30 29
19 18 18 18 18 18 18 18 18 18 18 19 19 20 20 20 20 20 20 20 20 20 20 20 20 21 21 22 22 23 23 24 24 24 25 25 25 25 26 26 25 25 25 26 27 27 27 27 26 24 23 22 22 23 23 24 23 23 23 24 24 26 27 29 30 30 30 30 30
19 19 19 19 19 19 19 18 19 19 20 21 20 21 21 21 21 20 20 20 20 21 21 21 21 22 23 23 24 24 24 24 24 25 25 25 25 26 26 26 26 26 27 28 29 29 28 27 26 25 24 23 22 23 23 23 23 23 23 24 24 24 24 26 29 30 30 28 30
20 19 19 19 20 20 20 20 21 21 22 22 22 22 22 21 21 21 21 22 22 22 21 21 22 22 23 24 24 25 26 26 27 27 27 27 27 27 27 27 27 27 28 29 29 29 29 28 27 25 24 24 23 24 24 23 23 22 23 23 23 23 23 24 26 27 28 28 29
20 20 20 20 20 21 21 21 22 22 23 22 22 22 22 22 21 21 22 22 22 22 22 23 23 23 24 25 26 27 28 28 29 28 28 28 28 28 28 28 27 28 28 28 27 27 27 28 27 26 25 24 24 24 25 24 23 22 22 22 22 23 24 24 24 24 25 26 28
21 21 21 21 22 22 22 22 22 23 23 23 23 23 23 22 22 22 23 23 23 24 24 25 25 26 26 27 28 29 29 29 29 29 29 29 29 29 29 28 28 28 28 27 25 25 25 26 25 24 23 23 24 24 24 24 23 22 22 22 23 24 25 24 24 24 24 25 26
22 22 23 23 23 23 23 23 23 24 24 24 23 24 24 24 24 24 25 25 24 24 23 23 23 24 25 26 27 27 28 29 29 29 29 29 29 29 29 29 29 28 28 28 27 26 25 25 24 23 22 22 22 23 24 23 22 22 22 23 24 25 25 25 25 25 25 25 26
22 23 23 24 24 24 24 24 24 24 24 24 24 24 25 26 26 26 25 23 22 20 20 21 22 23 24 25 26 26 27 27 27 28 28 28 29 29 30 29 29 29 29 29 28 27 26 25 24 23 23 22 22 22 24 23 23 23 23 23 23 23 22 22 23 24 25 25 26
23 23 23 24 24 23 24 24 24 24 24 24 25 25 25 25 24 23 21 20 19 19 20 21 22 23 24 25 26 26 25 25 25 26 26 27 28 29 29 29 28 28 28 28 28 27 27 25 24 23 23 22 22 22 23 24 24 24 23 23 22 21 20 21 22 23 24 26 26
23 23 23 23 23 24 24 25 25 25 25 24 24 24 23 23 21 20 20 20 21 21 21 22 23 24 24 25 25 24 24 24 25 25 26 25 26 27 28 28 28 28 28 27 27 26 26 25 24 23 23 24 24 25 25 26 25 25 24 22 21 21 21 22 23 24 25 26 27
23 23 23 23 23 24 25 25 25 24 24 23 22 22 21 21 22 22 22 22 22 22 22 22 23 23 23 23 23 23 23 24 24 25 26 26 25 25 26 28 28 28 28 27 26 25 24 24 24 23 24 24 25 25 26 27 27 26 25 23 22 22 22 24 24 24 25 26 27
23 23 23 24 24 25 24 24 23 22 22 21 21 22 22 22 22 22 22 23 23 22 22 22 21 22 22 22 22 22 22 23 24 25 25 26 26 25 25 26 27 28 28 27 26 25 24 24 23 23 23 24 24 24 23 24 26 27 25 23 22 22 24 25 24 23 24 25 26
23 24 24 24 24 24 23 22 21 20 21 21 22 22 22 22 22 22 22 22 22 22 22 21 21 21 22 22 22 22 22 23 23 24 25 26 26 25 24 24 26 27 27 27 26 25 25 24 24 23 24 24 24 23 22 21 22 23 23 22 22 23 25 25 23 21 21 23 25
24 24 24 24 23 22 21 20 20 21 21 22 22 22 22 22 21 21 21 21 22 22 22 22 22 21 21 22 22 22 23 24 24 25 26 26 26 25 24 23 24 25 26 27 26 26 25 25 24 24 24 24 24 24 24 22 20 19 20 20 22 24 25 24 21 20 20 22 23
24 25 24 23 21 20 20 21 21 21 22 22 22 22 22 22 21 21 21 21 22 22 22 22 22 22 22 22 22 23 24 24 24 24 25 25 25 25 24 23 23 24 25 26 26 26 26 26 25 25 24 25 25 25 25 24 23 20 19 20 22 23 23 22 20 19 20 21 22
25 24 23 21 20 20 21 22 22 22 22 22 23 23 23 22 22 21 22 22 23 23 22 22 22 23 23 23 23 23 23 23 24 24 24 24 24 24 24 23 22 23 24 26 26 27 27 27 26 26 25 25 25 25 25 25 24 23 21 21 22 22 22 21 20 20 20 20 20
24 23 21 20 20 22 23 23 23 22 23 23 24 24 24 23 22 23 23 23 23 23 23 23 23 23 23 23 23 23 22 23 23 23 23 23 23 23 24 23 22 22 23 25 26 27 27 27 27 27 26 26 25 25 26 26 25 24 23 22 22 22 22 21 21 22 21 20 19
23 22 21 21 22 23 24 24 24 24 24 25 25 25 24 24 24 24 24 24 24 24 24 24 24 23 23 23 23 22 22 22 22 23 23 23 23 24 24 24 23 22 22 23 25 27 28 28 28 28 27 27 26 26 26 26 25 25 24 23 23 22 22 22 23 22 21 21 19
22 22 22 23 24 24 24 24 24 24 25 25 25 25 25 25 25 25 25 25 25 25 25 25 25 24 23 23 23 22 22 22 23 23 24 24 24 24 24 24 23 23 22 23 24 26 27 28 28 28 27 27 26 26 26 26 26 25 25 24 23 23 23 24 24 23 22 22 20
22 22 23 24 25 25 25 25 25 25 25 25 25 25 25 25 25 25 25 25 25 26 26 26 26 25 24 23 23 22 22 22 22 23 23 23 23 23 23 23 23 23 23 23 24 25 27 28 28 28 27 27 27 27 26 26 26 26 26 25 24 23 23 24 24 24 23 21 21
23 23 24 25 25 25 25 25 25 25 25 25 25 25 25 25 25 25 26 26 26 26 26 26 26 26 25 24 23 22 22 22 21 22 22 23 23 23 23 23 23 23 24 24 23 24 25 27 27 27 27 27 27 27 27 26 26 26 26 26 25 24 24 24 24 23 23 22 21
24 24 25 26 25 25 25 25 25 25 25 25 25 25 25 25 25 26 26 26 26 26 26 26 25 25 24 24 23 23 22 22 21 21 22 22 22 22 22 22 23 24 24 24 24 24 24 25 26 27 27 27 27 27 27 26 26 26 26 26 26 25 24 24 24 24 23 22 22
25 25 25 26 26 26 26 26 26 25 25 25 25 25 26 26 26 26 26 26 25 25 25 25 25 24 24 23 23 23 23 22 22 22 21 21 22 22 22 23 23 24 24 24 24 24 24 24 25 26 26 26 26 26 27 27 27 26 26 26 26 26 25 25 25 24 24 23 23
26 26 26 26 26 26 26 26 26 25 25 25 25 26 26 26 26 26 26 26 25 25 25 25 25 25 24 23 23 22 22 22 22 22 22 21 21 21 22 23 23 24 24 24 23 23 23 23 24 25 25 26 26 26 26 27 26 26 26 26 26 25 25 25 24 24 25 25 25
26 27 26 26 26 26 26 26 26 26 26 26 26 26 26 26 26 26 26 26 25 25 25 25 25 25 24 23 22 22 21 21 21 21 22 22 22 21 22 22 22 21 21 21 22 23 23 24 24 24 24 25 25 26 26 26 26 26 26 26 25 25 25 25 25 25 25 26 26
26 27 27 26 26 27 27 27 26 26 26 26 26 26 26 26 26 26 26 26 26 25 25 25 25 24 23 23 22 21 21 20 20 21 21 22 22 22 22 21 21 20 20 21 21 22 23 24 25 25 25 25 25 25 25 26 26 26 26 26 26 25 25 24 25 25 26 26 27
26 26 26 26 26 27 27 27 27 27 27 27 27 27 26 27 26 26 26 26 26 25 25 24 24 23 23 22 21 21 21 21 21 21 22 22 22 22 22 21 20 20 20 21 21 22 23 24 25 26 27 26 25 25 24 25 25 26 27 27 27 26 25 25 25 25 25 26 27
26 26 26 26 27 27 27 27 27 28 28 28 27 27 27 27 26 26 26 26 26 25 25 24 23 22 22 21 21 22 22 22 22 22 22 22 22 22 22 21 21 21 21 22 22 23 24 25 26 27 27 28 28 27 25 25 25 26 26 27 27 27 27 27 26 25 25 25 25
26 26 26 27 27 27 27 27 28 28 28 28 28 28 27 27 26 26 26 26 26 25 24 23 23 22 22 22 23 23 23 23 23 22 22 22 22 22 22 22 22 22 22 23 23 24 25 25 25 26 27 28 29 28 26 25 25 25 25 25 26 27 28 27 27 26 25 24 24
27 27 27 27 27 27 27 27 28 28 28 28 28 28 28 27 26 26 26 25 25 25 24 24 24 24 24 24 24 24 23 23 23 23 23 23 23 23 23 23 23 23 23 23 24 25 25 26 25 25 26 28 29 30 29 27 26 25 25 25 26 27 28 28 29 28 27 26 25
27 27 28 28 28 27 27 27 28 28 28 28 29 28 28 27 27 26 26 26 26 25 25 25 25 25 25 25 24 24 24 24 23 23 23 23 24 24 24 24 24 24 24 25 25 25 26 26 26 25 25 27 28 29 29 29 28 27 25 25 25 27 28 29 29 30 30 29 27
28 28 28 28 28 28 28 28 28 28 28 28 28 28 28 27 27 27 27 26 26 26 26 26 25 25 25 25 25 24 24 24 24 23 23 24 25 25 26 26 26 25 25 25 25 26 26 26 27 27 27 27 28 28 28 30 30 29 28 27 27 27 28 28 29 30 31 31 29
28 28 28 28 29 29 29 29 28 28 28 28 28 28 27 28 28 28 28 27 26 26 26 26 25 25 25 25 25 25 25 25 24 24 24 25 25 26 27 27 26 25 25 25 26 27 28 28 27 27 27 28 28 28 27 28 30 30 29 28 28 28 28 29 29 30 31 32 31
28 28 28 28 29 29 29 29 29 29 28 28 28 28 28 28 28 28 28 27 27 26 26 26 25 25 25 25 25 25 25 25 25 25 25 25 26 27 27 27 26 26 26 27 28 29 29 29 28 28 27 28 29 28 27 26 29 30 30 30 29 29 29 29 30 31 31 32 32
28 28 28 28 28 28 29 29 29 29 28 28 28 28 28 28 28 28 28 28 28 27 27 26 26 26 26 26 26 25 25 26 26 26 26 26 27 28 28 28 28 28 28 29 30 31 31 30 29 28 28 28 29 28 27 25 27 29 31 31 31 30 30 30 30 31 31 32 32
28 29 29 28 28 28 28 28 28 28 28 28 28 29 29 28 28 28 28 28 28 28 27 27 27 27 27 27 26 26 26 26 27 27 28 28 28 29 29 29 30 30 30 31 31 31 31 31 30 29 29 29 29 27 25 24 25 27 30 31 31 31 31 31 31 31 31 32 32
28 28 28 29 29 28 28 28 28 28 28 28 28 28 28 28 28 28 27 27 28 28 28 28 28 27 27 27 27 27 27 28 28 29 29 29 29 29 30 31 31 32 32 32 32 32 32 31 30 29 29 29 28 26 24 22 22 24 26 29 30 31 32 31 31 31 31 32 32
28 28 28 28 28 28 28 28 28 28 28 28 29 28 28 28 27 27 27 27 27 28 28 28 28 28 28 28 29 29 29 29 28 28 29 29 29 29 30 32 33 33 33 33 33 33 33 32 31 29 28 28 28 26 24 22 21 22 23 25 27 29 30 31 30 30 31 32 33
28 28 28 28 28 28 28 28 28 28 28 28 28 28 28 28 27 27 27 27 27 27 28 28 28 29 29 29 29 29 30 29 29 28 28 28 29 30 30 31 33 34 34 34 34 34 33 32 31 29 28 28 27 26 24 22 21 21 22 23 24 25 27 29 29 29 30 32 33
28 28 28 27 27 27 27 28 28 28 28 27 28 27 28 28 27 27 27 27 27 27 27 27 28 29 29 29 29 29 29 29 29 28 28 29 30 30 31 31 32 33 34 35 34 34 33 32 30 29 28 27 27 25 23 22 21 21 22 22 22 22 24 26 26 27 28 30 31
27 27 27 27 27 27 28 28 28 28 27 27 27 27 27 28 27 27 27 27 27 27 27 27 28 28 29 29 28 28 29 29 29 28 28 29 30 30 30 31 31 33 34 34 34 33 32 31 29 28 27 27 26 25 23 21 21 21 22 22 22 22 22 24 25 26 27 28 29
Wind_Direction
323 320 316 314 311 308 305 302 299 298 297 295 294 293 292 291 290 289 288 287 286 285 286 287 286 286 286 287 287 286 285 283 281 279 277 275 273 272 271 270 269 268 266 266 265 264 262 261 262 263 264 265 265 265 263 259 253 249 245 240 234 230 230 231 233 234 235 236 236
321 318 316 313 310 308 306 302 300 299 298 296 294 293 292 291 289 288 287 286 286 286 286 287 286 286 285 285 284 284 283 282 280 279 277 275 273 272 271 271 271 270 269 269 268 267 265 263 262 261 261 261 261 260 258 256 253 251 250 249 243 235 229 228 231 233 234 234 235
320 318 317 314 312 309 307 304 301 300 298 297 295 294 292 291 289 288 287 286 286 285 285 286 286 285 285 284 283 281 280 278 277 276 274 273 272 271 269 268 268 267 266 265 265 264 263 261 260 259 259 259 258 256 254 252 249 247 247 249 248 243 234 228 229 231 232 232 233
320 318 317 315 313 310 308 305 303 302 301 299 298 296 294 292 290 288 287 287 287 285 284 286 287 287 286 285 283 281 279 277 276 274 273 272 271 270 268 267 266 265 264 263 261 260 260 260 259 258 258 257 255 253 251 248 245 243 244 245 247 246 241 235 230 228 228 229 230
320 319 317 314 313 311 309 307 305 304 303 302 301 299 296 294 292 291 290 289 288 286 285 286 288 287 286 284 282 280 279 277 275 274 272 271 270 269 267 266 265 264 265 264 263 262 262 261 258 255 255 254 254 252 249 246 243 242 244 246 247 247 245 241 235 230 227 227 228
320 318 316 314 312 311 310 309 307 306 305 304 302 299 298 296 294 292 290 288 287 287 287 287 288 287 286 285 283 281 279 277 275 273 272 271 270 269 267 265 263 262 263 264 265 266 266 264 258 254 252 252 251 250 249 246 243 243 245 247 247 245 242 239 236 233 230 226 225
319 317 315 314 313 312 311 310 309 308 307 305 303 300 298 297 294 292 290 288 288 289 291 292 292 291 290 288 286 283 281 278 277 275 273 271 270 269 268 266 265 263 262 262 263 263 264 266 263 258 253 250 249 249 248 246 243 243 245 246 246 242 237 233 233 232 231 228 225
317 316 315 315 314 313 312 311 311 309 307 304 302 300 299 297 295 293 292 292 293 296 299 300 299 298 296 295 293 290 288 284 280 277 274 271 269 268 267 266 266 264 263 262 261 261 261 263 264 262 257 251 247 246 245 244 242 242 244 247 249 245 238 231 230 230 230 229 226
317 317 317 316 315 314 313 312 311 309 306 304 302 301 300 299 298 298 299 302 304 305 304 301 299 298 297 297 296 296 294 292 289 285 281 275 271 267 265 264 263 263 263 262 261 260 259 259 260 261 259 254 247 243 241 240 240 241 244 248 253 253 249 240 233 230 230 229 227
318 318 317 316 315 314 314 312 311 309 306 303 303 303 304 305 307 310 311 310 307 304 300 298 297 296 296 296 295 295 294 294 293 291 289 285 278 270 264 260 259 260 260 260 260 259 258 257 256 257 259 259 253 245 239 236 237 239 242 246 251 256 257 250 240 233 229 229 227
318 318 317 316 315 314 314 312 311 309 307 305 305 308 311 313 314 313 311 308 304 300 298 297 297 297 296 295 295 294 293 292 292 292 292 290 286 277 267 260 258 257 258 259 259 258 256 255 254 254 257 260 260 253 242 233 233 235 239 243 248 254 256 254 244 234 228 227 227
318 318 317 315 315 314 313 312 311 310 310 310 312 314 315 314 312 309 307 304 301 299 298 298 298 298 297 296 296 295 295 294 293 293 293 293 292 286 275 264 258 256 257 258 258 257 255 254 253 253 255 258 263 262 252 236 229 230 235 241 246 250 253 254 247 237 229 226 226
318 317 316 315 315 315 315 315 315 316 316 316 315 314 312 309 307 306 305 303 301 301 301 300 299 298 297 297 297 297 296 296 295 294 294 294 294 292 283 270 260 256 256 257 258 256 254 254 253 253 254 257 261 265 263 251 234 228 230 237 243 247 250 252 250 245 237 231 226
318 317 316 316 316 317 319 320 321 319 317 315 313 311 309 307 306 305 304 303 303 303 302 301 300 299 298 298 297 297 297 296 295 294 293 293 293 292 287 276 263 256 255 256 257 256 254 254 253 253 254 256 258 262 265 263 253 240 234 237 241 244 246 248 250 251 248 241 233
318 317 316 317 318 321 324 324 321 318 315 312 311 310 310 308 307 306 305 304 304 304 303 302 301 300 299 298 298 297 297 296 295 294 292 291 291 291 289 281 269 259 254 254 256 256 255 254 254 254 254 255 257 259 262 263 261 256 248 244 244 244 245 245 248 251 251 247 241
317 316 317 319 322 325 325 322 319 316 313 312 311 311 310 309 307 307 306 306 305 304 303 302 301 301 300 299 298 298 297 296 294 293 291 290 290 290 290 286 276 265 257 254 254 255 255 255 254 254 254 254 256 257 259 260 261 259 256 253 252 251 249 247 246 247 248 248 246
317 317 319 322 325 325 323 321 318 315 314 313 312 312 311 310 308 308 307 307 306 305 303 302 302 301 300 299 299 298 297 296 294 293 291 289 289 289 289 288 283 274 264 257 254 254 255 256 256 255 254 254 255 256 257 258 258 258 257 257 257 257 256 252 247 245 245 247 248
318 319 322 325 325 324 322 320 318 316 314 314 313 312 312 310 310 309 308 307 306 305 304 303 302 301 300 298 298 297 296 295 294 292 290 289 288 287 287 287 286 280 271 263 257 255 256 257 257 257 256 255 254 255 256 256 257 257 257 258 259 260 259 256 250 246 245 247 248
320 322 324 325 324 323 321 319 318 316 315 314 314 313 312 311 311 310 309 308 307 306 305 304 303 302 300 298 298 297 296 295 293 292 290 289 287 286 285 285 284 282 277 269 262 259 257 257 257 257 256 255 255 254 254 255 255 255 256 257 258 259 259 257 254 250 247 248 249
323 325 325 325 323 321 320 319 318 317 316 315 314 314 313 313 312 311 310 309 308 307 306 304 303 302 301 299 298 297 296 295 294 293 291 290 288 286 284 284 284 283 281 275 268 263 259 258 257 257 256 255 255 254 254 254 253 253 254 255 256 257 258 258 256 253 251 249 250
325 326 325 323 322 320 319 318 318 317 317 316 315 315 314 314 313 312 311 310 309 308 307 305 303 302 300 299 298 297 297 297 296 294 292 291 289 287 285 284 284 283 282 279 273 267 261 259 257 256 255 255 254 254 253 252 252 251 252 253 254 256 257 257 257 255 252 251 251
326 325 324 322 321 320 319 319 318 318 317 317 316 316 315 315 314 313 312 311 310 309 307 306 304 302 301 299 298 298 299 298 297 296 294 292 289 287 286 285 284 283 282 280 277 271 266 261 258 256 254 253 253 253 252 251 250 250 250 251 252 254 255 257 257 256 253 251 251
325 324 323 322 321 321 320 320 319 319 318 318 318 317 317 316 315 314 314 313 311 310 309 307 306 304 303 302 300 300 300 300 299 298 297 294 292 289 288 286 284 282 281 279 277 274 269 264 260 257 254 252 251 251 251 250 249 248 248 248 249 251 253 255 256 255 254 251 250
325 324 323 323 322 322 321 321 320 320 320 319 319 318 318 317 317 316 315 314 312 311 310 309 308 306 305 304 303 302 301 300 300 300 300 298 296 294 293 291 288 284 280 277 274 272 269 265 261 258 256 254 252 251 250 250 248 247 246 246 246 247 250 251 253 253 252 251 249
325 324 324 323 323 323 322 322 322 321 321 320 320 319 319 318 318 317 316 315 314 313 312 311 310 309 307 306 304 303 302 301 301 302 302 302 300 299 298 296 293 289 284 280 276 272 268 264 261 259 257 256 254 253 251 250 249 247 246 244 243 244 245 247 248 249 249 248 247
325 325 325 324 324 324 324 323 323 322 321 321 321 320 320 319 319 318 317 315 315 314 313 312 311 310 309 307 305 304 303 302 303 303 303 302 301 300 299 296 294 291 288 286 283 281 275 268 261 257 255 255 254 254 253 252 251 249 247 246 244 242 241 242 243 244 244 244 244
325 325 325 325 325 325 324 324 324 323 323 322 322 321 321 320 320 319 317 316 316 315 315 314 313 312 310 308 306 305 304 304 304 304 303 302 301 299 298 295 293 290 288 287 286 286 286 283 274 264 256 251 251 251 252 252 252 251 249 248 246 244 242 241 241 240 240 240 240
325 325 325 325 325 325 325 325 325 324 324 323 323 322 321 321 320 319 318 318 317 317 316 315 314 313 312 310 308 307 306 305 305 305 304 303 302 300 299 297 293 290 289 288 287 286 287 289 289 282 270 257 250 248 249 250 251 250 249 248 247 246 244 243 242 241 240 240 238
326 326 326 326 326 326 326 326 326 325 325 324 323 322 322 321 321 320 320 319 319 318 317 316 315 314 312 310 308 307 307 306 306 306 306 305 304 302 300 298 296 293 291 291 290 288 286 285 287 289 286 274 259 249 246 246 247 247 246 245 244 244 243 243 243 243 242 241 240
327 327 326 326 326 326 326 326 326 325 325 324 323 323 323 322 322 321 321 320 319 317 316 315 314 312 311 309 309 308 307 307 307 307 306 306 305 303 302 301 299 296 294 293 292 291 289 285 283 285 288 288 275 260 250 246 245 245 243 242 241 240 240 240 241 241 241 241 241
328 328 327 326 326 326 326 326 326 325 325 325 324 324 323 323 322 322 321 320 318 316 316 315 313 312 310 310 310 308 307 307 307 307 306 306 305 304 304 302 300 298 296 295 294 294 292 289 284 280 282 289 288 276 260 250 246 244 243 241 239 238 237 238 239 239 240 240 240
328 328 327 327 326 326 326 326 326 326 325 325 324 324 323 322 322 321 321 319 318 317 316 315 314 313 312 312 311 310 309 308 307 306 306 306 306 305 304 303 301 299 298 297 296 296 295 292 287 282 281 284 292 288 274 258 249 245 243 242 240 238 236 235 235 236 237 237 237
328 328 327 326 326 326 326 326 326 326 326 325 324 324 323 322 321 321 320 320 319 317 316 315 314 313 313 312 311 310 309 308 307 306 306 306 306 305 305 304 302 300 299 299 298 298 297 296 293 288 286 287 293 293 284 269 255 248 244 242 241 239 237 236 235 234 235 235 235
328 327 326 325 325 325 325 325 326 326 325 325 324 324 323 322 321 320 320 320 319 317 316 315 313 312 311 311 310 309 308 308 308 307 307 307 306 306 305 304 302 301 301 301 301 301 301 301 299 296 294 294 297 297 291 277 261 251 245 242 241 240 239 237 236 235 234 234 234
327 326 325 325 324 324 324 325 325 325 325 324 324 324 323 322 320 319 319 319 318 317 316 315 314 313 312 311 310 310 309 308 308 308 307 307 307 307 306 304 303 303 303 303 304 304 304 304 303 301 300 300 300 298 293 282 266 253 245 242 240 239 239 238 237 236 235 234 233
327 326 325 324 323 324 324 324 324 324 324 324 324 323 322 321 320 319 319 318 318 317 317 316 315 314 313 312 312 311 310 309 309 308 309 309 309 308 307 306 306 306 307 307 306 306 305 305 303 303 302 301 299 297 293 284 269 255 245 240 238 238 238 237 237 236 235 234 233
326 325 324 323 323 323 323 323 324 324 323 323 323 322 321 320 319 319 319 319 319 318 317 317 316 314 313 312 312 311 310 310 309 309 309 310 310 310 309 309 308 308 308 308 308 307 306 305 303 302 301 299 297 295 292 284 272 258 247 240 237 237 237 236 236 235 235 234 234
324 324 323 322 322 322 322 323 323 323 322 321 321 321 320 319 319 319 319 319 318 317 316 315 314 313 312 312 311 310 310 310 309 309 309 309 310 310 310 309 308 308 308 308 308 307 306 304 303 301 300 297 294 292 290 285 275 263 251 242 238 236 236 235 235 234 234 234 234
323 323 322 321 321 321 321 322 322 321 320 319 319 319 320 320 319 319 319 318 316 315 314 313 312 311 311 311 310 309 309 309 309 309 308 308 309 309 308 307 306 306 306 306 306 305 305 304 303 301 300 297 294 291 288 284 276 266 256 247 241 237 235 234 233 234 234 234 235
322 322 321 321 321 321 320 320 320 319 319 318 318 317 318 319 318 317 317 316 315 313 312 310 310 310 310 310 309 308 308 308 308 308 307 307 307 307 307 305 304 304 304 304 304 304 304 303 303 302 300 298 295 291 288 283 276 268 259 250 243 238 235 234 234 235 236 237 237
321 321 321 321 321 320 320 319 318 318 318 318 317 317 317 317 316 316 315 315 314 312 311 310 309 309 309 309 308 307 306 306 306 307 307 307 306 306 305 304 303 302 303 303 304 304 304 304 304 303 302 299 295 292 289 285 278 269 260 252 245 241 239 239 239 239 239 239 238
Height
756 755 754 753 752 751 749 748 747 746 745 744 743 741 740 739 738 736 735 734 733 732 730 729 728 727 726 725 725 724 723 723 723 723 722 722 721 721 721 720 720 720 720 720 720 720 720 720 720 720 719 718 718 718 717 717 717 717 717 716 716 716 717 718 718 719 720 721 722
755 754 753 752 751 750 748 747 746 745 744 743 742 740 739 738 736 735 734 733 732 730 729 728 727 725 724 724 723 723 723 722 722 721 721 720 719 719 719 718 718 718 718 718 718 718 718 718 718 718 717 716 716 715 715 714 714 714 714 714 713 713 713 714 715 716 717 718 719
754 753 752 751 750 749 748 746 745 744 743 742 740 739 738 736 735 733 732 731 730 729 728 726 725 724 723 722 722 722 721 721 720 719 718 718 717 717 717 716 716 716 716 716 716 715 715 716 716 715 715 714 713 713 713 712 713 713 712 712 711 711 711 711 712 713 715 716 717
753 752 751 750 749 748 747 745 744 742 741 740 738 737 736 735 733 732 730 729 728 727 726 725 723 723 722 721 721 720 719 719 718 717 716 716 715 714 714 714 714 713 713 713 713 713 713 713 713 713 712 712 711 711 710 710 710 710 710 709 709 709 709 708 709 710 712 713 713
753 752 751 749 748 747 746 744 743 741 740 738 737 736 734 733 732 730 729 728 726 725 724 723 723 721 721 720 719 718 718 717 716 715 714 713 712 712 712 712 711 711 711 711 710 710 710 711 711 710 709 709 709 708 708 708 708 708 707 707 707 707 707 707 707 708 708 709 710
752 751 749 748 747 746 744 743 741 740 738 737 736 734 733 732 730 729 727 726 724 723 723 722 721 720 719 718 717 716 715 714 713 713 712 711 710 709 709 709 709 709 709 708 708 708 708 708 708 707 707 707 706 706 706 706 706 705 705 705 704 705 705 705 705 705 706 707 708
751 750 748 747 746 744 743 741 740 738 737 736 734 733 731 730 728 727 726 724 723 722 721 720 720 719 718 717 716 714 713 712 711 710 709 708 707 707 706 706 706 706 706 706 706 706 706 706 706 705 704 704 704 703 703 703 703 703 703 702 702 702 702 702 702 703 704 704 705
750 749 747 746 744 743 741 740 739 737 736 734 733 731 730 728 727 725 724 723 722 721 720 720 719 718 717 716 714 713 712 710 709 708 707 706 705 704 704 703 703 703 703 703 703 703 703 704 704 703 702 702 701 701 701 701 701 701 700 700 700 699 699 699 699 700 701 702 703
749 748 746 745 743 742 740 739 738 736 735 733 731 730 728 727 725 724 723 722 721 720 719 718 717 716 715 714 713 712 710 709 708 706 705 704 703 702 701 701 701 701 701 701 701 701 701 701 701 701 700 699 699 698 698 699 699 698 698 698 698 697 697 697 697 698 698 699 700
748 747 745 744 742 741 739 738 736 735 733 731 730 728 727 726 725 723 722 721 720 719 718 717 716 715 713 712 711 710 708 707 706 705 703 702 701 700 699 699 698 698 698 698 698 698 699 699 698 698 698 698 697 696 696 696 696 696 696 696 695 695 695 695 695 695 696 697 697
748 746 745 743 741 740 738 736 735 733 732 730 729 728 726 725 723 722 721 720 719 718 716 715 714 713 712 711 709 708 707 706 704 703 702 700 699 698 697 696 696 696 696 696 696 697 697 696 696 696 695 695 694 694 693 693 693 693 693 693 693 693 693 693 693 693 693 693 694
747 745 744 742 740 738 737 735 734 732 731 730 728 727 725 724 723 721 720 719 718 716 715 714 713 712 710 709 708 707 705 704 703 702 700 698 697 696 695 694 694 693 693 694 694 694 694 694 693 693 693 693 692 692 691 690 690 690 690 690 691 691 692 691 691 690 690 691 692
746 744 743 741 739 737 736 734 733 732 730 729 728 726 725 723 722 720 719 718 716 715 713 712 711 710 709 708 706 705 704 703 701 700 698 697 696 694 693 693 692 691 691 691 692 692 692 692 691 691 691 690 690 689 689 688 687 687 688 688 688 689 689 689 688 688 688 688 689
745 743 741 739 738 736 735 734 733 731 730 728 727 725 724 722 721 719 718 716 715 713 712 711 710 708 707 706 705 703 702 701 700 698 697 696 694 693 692 691 690 689 689 689 689 689 690 689 689 689 689 688 688 688 687 687 686 685 685 686 687 687 687 687 686 686 687 687 687
743 742 740 738 737 736 735 733 732 730 729 727 726 724 723 721 719 718 717 715 714 712 711 709 708 707 706 704 703 702 701 699 698 697 695 694 693 691 690 689 688 688 688 687 687 687 687 687 687 687 687 687 686 686 685 685 684 684 684 684 685 685 684 684 684 685 685 685 685
742 740 738 737 736 735 734 733 731 729 728 726 725 723 722 720 718 717 716 714 713 711 709 708 707 705 704 703 702 701 699 698 697 695 694 693 691 690 689 688 687 686 686 685 685 685 685 685 685 685 685 685 684 684 684 683 683 683 683 683 683 683 682 682 682 683 684 684 684
740 739 738 737 735 734 733 732 730 728 727 725 723 722 720 719 717 716 714 713 711 710 708 707 705 704 703 701 700 699 698 696 695 694 693 691 690 689 688 687 686 685 684 684 683 683 683 683 683 683 683 683 683 682 682 682 682 681 681 681 681 680 680 680 681 681 682 683 682
739 738 737 736 734 733 732 730 729 727 725 724 722 720 719 717 716 714 713 711 710 708 707 705 704 703 701 700 698 698 696 695 693 692 691 690 689 688 687 685 684 683 683 682 682 681 681 681 681 681 681 681 681 680 680 680 680 679 679 679 679 679 679 679 679 680 680 680 680
738 737 736 734 733 732 730 729 727 726 724 722 721 719 717 716 714 713 711 709 708 707 705 703 702 701 700 698 697 696 695 693 692 691 689 688 687 686 685 684 683 682 681 680 680 679 678 678 678 679 679 679 678 678 678 678 678 678 678 677 677 677 677 678 678 678 678 678 678
738 737 735 733 732 731 729 728 726 724 723 721 719 718 716 714 713 711 709 708 706 705 703 702 701 699 698 697 695 694 693 692 691 689 688 687 686 684 683 682 681 680 679 678 678 677 677 676 676 677 677 677 677 677 676 676 676 676 676 675 675 675 675 676 675 675 675 675 675
737 736 734 733 731 729 728 726 724 723 721 719 718 716 714 713 711 709 708 706 705 703 702 700 699 698 696 695 693 692 691 690 689 688 686 685 683 682 681 680 679 678 677 677 676 675 675 674 674 674 674 675 675 674 674 674 674 674 673 673 673 673 673 673 673 673 673 673 673
736 735 733 732 730 728 727 725 723 722 720 718 716 714 713 711 709 708 706 705 703 702 700 698 697 696 694 693 692 690 689 688 687 686 684 683 682 680 679 678 677 676 675 674 674 673 673 673 673 673 673 673 673 673 673 673 672 672 672 671 671 671 671 671 671 671 671 671 671
736 734 732 730 729 727 725 723 722 720 718 716 715 713 711 709 708 706 704 703 701 700 698 697 695 694 693 691 690 689 688 686 685 684 683 681 680 679 678 677 675 674 673 673 672 672 672 671 671 671 671 671 671 671 671 671 670 670 670 669 669 669 669 669 669 669 669 669 669
734 733 731 729 727 726 724 722 720 718 717 715 713 711 710 708 706 704 703 701 700 698 697 695 693 692 691 689 688 687 686 684 683 682 681 679 678 677 676 675 673 673 671 671 670 670 670 670 669 669 669 669 668 668 668 668 668 668 668 668 668 667 667 667 667 667 667 668 668
733 732 730 728 726 724 722 721 719 717 715 713 712 710 708 706 704 703 701 699 698 696 695 693 692 690 689 688 686 685 684 683 682 680 679 678 677 676 674 673 672 671 670 669 668 668 668 668 668 668 667 667 667 667 667 666 666 666 666 666 666 666 666 665 665 665 666 666 666
733 731 729 727 725 723 721 719 717 715 713 712 710 708 707 705 703 701 699 698 696 695 693 692 690 688 687 686 684 683 682 681 680 679 678 676 675 674 673 672 671 669 668 667 667 666 666 665 665 665 665 665 665 665 665 664 664 664 664 664 664 664 664 664 664 664 664 664 664
732 730 728 726 724 722 720 718 716 714 712 710 708 707 705 703 702 700 698 696 695 693 692 690 688 687 686 684 683 682 680 679 678 677 676 674 673 672 671 670 669 668 667 666 665 664 664 664 663 663 663 663 663 663 663 662 662 662 662 662 662 662 661 661 662 662 662 662 663
731 728 727 725 723 721 719 717 715 713 711 709 707 705 704 702 700 698 697 695 693 692 690 688 687 686 684 683 681 680 679 678 676 675 674 673 672 670 669 668 667 666 665 664 663 663 662 661 661 661 661 660 660 660 660 660 660 660 659 659 659 659 659 659 659 660 660 660 661
729 728 725 723 722 720 718 716 714 712 710 708 706 704 702 701 699 697 695 694 692 690 689 687 686 684 683 681 680 678 677 676 675 673 672 671 669 668 667 666 665 664 663 662 662 661 660 659 658 659 659 659 658 658 658 657 657 657 657 657 656 656 656 657 657 657 658 658 658
728 727 724 723 720 718 717 715 713 711 709 707 704 703 701 699 698 696 694 693 691 689 688 686 685 683 682 680 678 677 676 674 673 672 670 669 668 666 665 664 663 662 661 660 659 659 658 658 657 656 656 657 657 656 655 654 654 654 654 654 653 653 654 654 654 655 655 656 656
728 726 723 721 719 718 716 714 712 710 708 706 704 702 700 698 696 695 693 692 690 688 687 685 683 682 680 679 677 676 674 673 671 670 669 667 666 664 663 662 660 659 658 658 657 657 656 655 655 654 654 654 654 654 653 652 651 651 651 651 651 651 651 651 652 652 653 653 654
727 725 723 720 718 717 715 713 711 709 707 705 703 701 699 697 695 694 692 690 688 687 685 683 682 680 678 677 676 674 673 671 670 668 667 666 664 662 661 659 658 657 656 655 655 654 653 653 653 652 651 651 651 652 651 650 649 648 648 648 648 648 648 648 649 649 650 651 652
726 724 722 720 718 716 713 712 710 708 706 704 703 700 698 696 694 693 691 689 688 686 684 682 681 679 677 675 674 672 671 669 668 667 665 664 663 661 659 657 656 654 653 653 652 652 651 650 650 649 649 648 648 648 648 647 646 645 645 644 645 645 645 645 646 646 647 648 648
726 723 722 719 717 715 713 711 709 707 705 703 702 700 698 696 694 692 690 688 686 685 683 681 680 678 676 674 673 671 669 668 667 665 664 663 661 659 657 655 653 652 651 651 650 649 648 648 647 647 646 646 646 645 644 644 643 642 642 641 641 642 642 643 643 643 643 644 645
725 723 721 719 717 715 713 710 708 707 705 703 701 699 697 695 693 691 689 687 685 683 682 680 678 677 675 673 672 670 668 666 665 663 662 661 659 657 655 653 651 650 649 648 647 646 645 645 644 644 643 643 643 642 641 641 640 639 638 638 638 639 639 640 640 640 641 642 643
725 723 721 718 716 714 712 710 708 706 704 702 700 698 696 694 693 691 688 686 684 682 680 678 677 675 673 671 669 668 666 665 663 661 659 658 657 654 652 649 648 646 646 645 644 643 643 642 642 642 641 641 641 640 639 638 637 636 635 635 635 635 636 637 637 638 638 639 639
725 723 720 718 716 714 712 710 708 706 704 702 700 698 696 693 692 689 688 686 683 681 679 677 675 673 672 670 668 666 664 663 661 659 657 656 654 652 649 647 645 643 643 642 641 641 640 640 639 639 640 640 639 638 637 636 635 633 633 632 632 632 633 633 634 635 635 636 636
724 722 720 718 715 713 711 709 708 705 703 701 699 698 695 693 691 689 687 685 683 681 678 676 674 673 671 668 667 664 663 661 660 658 656 654 653 651 649 646 643 641 641 640 639 638 638 638 637 638 638 638 637 636 635 634 633 632 631 630 629 629 630 630 631 632 632 633 633
723 722 720 718 715 713 711 709 707 705 703 701 698 697 695 693 691 689 687 685 683 681 678 676 674 672 670 668 665 663 661 660 658 657 655 653 652 650 648 646 643 641 639 639 638 637 636 636 635 635 636 636 636 635 634 633 631 630 628 628 627 627 627 628 628 629 629 629 630
723 721 719 717 715 713 711 708 707 705 703 701 698 696 694 692 690 688 686 684 683 681 678 676 673 671 669 667 665 662 660 658 657 656 655 653 651 650 648 646 643 641 639 638 637 636 635 634 634 633 633 634 633 633 632 631 629 628 627 626 625 625 625 625 626 626 626 627 627
722 720 718 717 715 713 710 708 706 704 702 700 698 696 694 692 690 688 686 684 682 680 678 675 673 670 668 667 664 662 659 657 656 655 654 652 651 649 648 646 643 640 638 637 636 635 633 633 632 631 631 632 632 631 630 629 628 626 624 623 623 623 623 623 623 623 624 624 624